Time,TemperatureF,DewpointF,PressureIn,WindDirection,WindDirectionDegrees,WindSpeedMPH,WindSpeedGustMPH,Humidity,HourlyPrecipIn,Conditions,Clouds,dailyrainin,SoftwareType,DateUTC
2013-04-13 10:22:00,36.7,23.7,29.12,West,275,5.0,5.0,59,0.00,,,0.00,Weather View 32 v70,2013-04-13 14:22:00,
2013-04-13 10:28:00,36.7,23.7,29.12,West,270,3.0,8.0,59,0.00,,,0.00,Weather View 32 v70,2013-04-13 14:28:00,
2013-04-13 10:34:00,36.7,23.3,29.12,NW,312,4.0,8.0,58,0.00,,,0.00,Weather View 32 v70,2013-04-13 14:34:00,
2013-04-13 10:39:00,36.7,22.4,29.12,WSW,239,3.0,8.0,56,0.00,,,0.00,Weather View 32 v70,2013-04-13 14:39:00,
2013-04-13 10:44:00,37.0,22.4,29.12,West,271,2.0,8.0,55,0.00,,,0.00,Weather View 32 v70,2013-04-13 14:44:00,
2013-04-13 10:49:00,37.2,21.6,29.12,SSW,203,4.0,8.0,53,0.00,,,0.00,Weather View 32 v70,2013-04-13 14:49:00,
2013-04-13 10:54:00,37.6,20.1,29.12,SSW,193,6.0,11.0,49,0.00,,,0.00,Weather View 32 v70,2013-04-13 14:54:00,
2013-04-13 10:59:00,37.8,18.3,29.12,SW,230,6.0,11.0,45,0.00,,,0.00,Weather View 32 v70,2013-04-13 14:59:00,
2013-04-13 11:04:00,37.9,20.0,29.12,NNW,327,0.0,11.0,48,0.00,,,0.00,Weather View 32 v70,2013-04-13 15:04:00,
2013-04-13 11:09:00,38.3,20.3,29.12,NNW,342,2.0,11.0,48,0.00,,,0.00,Weather View 32 v70,2013-04-13 15:09:00,
2013-04-13 11:14:00,38.3,18.8,29.12,West,280,5.0,11.0,45,0.00,,,0.00,Weather View 32 v70,2013-04-13 15:14:00,
2013-04-13 11:19:00,37.6,17.1,29.15,SSW,203,7.0,11.0,43,0.00,,,0.00,Weather View 32 v70,2013-04-13 15:19:00,
2013-04-13 11:25:00,37.4,17.5,29.15,SW,216,8.0,12.0,44,0.00,,,0.00,Weather View 32 v70,2013-04-13 15:25:00,
2013-04-13 11:30:00,37.2,17.3,29.15,SW,222,5.0,12.0,44,0.00,,,0.00,Weather View 32 v70,2013-04-13 15:30:00,
2013-04-13 11:35:00,37.4,17.5,29.15,SSW,192,3.0,12.0,44,0.00,,,0.00,Weather View 32 v70,2013-04-13 15:35:00,
2013-04-13 11:40:00,37.8,19.3,29.15,West,274,0.0,12.0,47,0.00,,,0.00,Weather View 32 v70,2013-04-13 15:40:00,
2013-04-13 11:45:00,38.7,20.6,29.15,SE,131,0.0,12.0,48,0.00,,,0.00,Weather View 32 v70,2013-04-13 15:45:00,
2013-04-13 11:50:00,39.0,20.0,29.15,South,185,7.0,12.0,46,0.00,,,0.00,Weather View 32 v70,2013-04-13 15:50:00,
2013-04-13 11:55:00,38.7,19.1,29.15,SSW,213,6.0,12.0,45,0.00,,,0.00,Weather View 32 v70,2013-04-13 15:55:00,
2013-04-13 12:00:00,38.3,17.2,29.15,SSW,200,5.0,12.0,42,0.00,,,0.00,Weather View 32 v70,2013-04-13 16:00:00,
2013-04-13 12:06:00,38.3,16.6,29.15,WNW,290,6.0,13.0,41,0.00,,,0.00,Weather View 32 v70,2013-04-13 16:06:00,
2013-04-13 12:12:00,38.5,18.4,29.15,WSW,245,6.0,13.0,44,0.00,,,0.00,Weather View 32 v70,2013-04-13 16:12:00,
2013-04-13 12:17:00,39.0,18.9,29.15,WSW,251,8.0,13.0,44,0.00,,,0.00,Weather View 32 v70,2013-04-13 16:17:00,
2013-04-13 12:22:00,39.0,18.4,29.15,WSW,245,8.0,13.0,43,0.00,,,0.00,Weather View 32 v70,2013-04-13 16:22:00,
2013-04-13 12:27:00,39.2,19.1,29.15,SSW,210,5.0,13.0,44,0.00,,,0.00,Weather View 32 v70,2013-04-13 16:27:00,
2013-04-13 12:33:00,39.4,19.8,29.15,NW,314,5.0,13.0,45,0.00,,,0.00,Weather View 32 v70,2013-04-13 16:33:00,
2013-04-13 12:38:00,39.4,18.2,29.15,SW,227,6.0,13.0,42,0.00,,,0.00,Weather View 32 v70,2013-04-13 16:38:00,
2013-04-13 12:43:00,39.7,19.0,29.15,NNW,338,8.0,13.0,43,0.00,,,0.00,Weather View 32 v70,2013-04-13 16:43:00,
2013-04-13 12:48:00,40.3,18.4,29.15,SSW,201,9.0,13.0,41,0.00,,,0.00,Weather View 32 v70,2013-04-13 16:48:00,
2013-04-13 12:53:00,39.7,19.0,29.15,SSW,213,10.0,13.0,43,0.00,,,0.00,Weather View 32 v70,2013-04-13 16:53:00,
2013-04-13 12:58:00,39.6,19.9,29.15,SSW,192,8.0,13.0,45,0.00,,,0.00,Weather View 32 v70,2013-04-13 16:58:00,
2013-04-13 13:04:00,38.8,20.8,29.15,West,272,5.0,13.0,48,0.00,,,0.00,Weather View 32 v70,2013-04-13 17:04:00,
2013-04-13 13:20:00,39.4,18.2,29.15,SW,221,6.0,11.0,42,0.00,,,0.00,Weather View 32 v70,2013-04-13 17:20:00,
2013-04-13 13:30:00,39.9,18.7,29.15,West,264,4.0,11.0,42,0.00,,,0.00,Weather View 32 v70,2013-04-13 17:30:00,
2013-04-13 14:00:00,39.6,21.5,29.15,WNW,286,5.0,11.0,48,0.00,,,0.00,Weather View 32 v70,2013-04-13 18:00:00,
2013-04-13 14:10:00,39.6,19.9,29.15,SW,217,6.0,11.0,45,0.00,,,0.00,Weather View 32 v70,2013-04-13 18:10:00,
2013-04-13 14:20:00,39.2,19.6,29.15,West,267,4.0,11.0,45,0.00,,,0.00,Weather View 32 v70,2013-04-13 18:20:00,
2013-04-13 14:30:00,38.5,20.5,29.15,SW,236,4.0,11.0,48,0.00,,,0.00,Weather View 32 v70,2013-04-13 18:30:00,
2013-04-13 14:34:00,38.5,20.5,29.15,SW,236,4.0,11.0,48,0.00,,,0.00,Weather View 32 v70,2013-04-13 18:34:00,
2013-04-13 14:40:00,39.7,20.6,29.18,West,266,8.0,10.0,46,0.00,,,0.00,Weather View 32 v70,2013-04-13 18:40:00,
2013-04-13 14:50:00,39.6,19.4,29.18,SW,223,0.0,10.0,44,0.00,,,0.00,Weather View 32 v70,2013-04-13 18:50:00,
2013-04-13 15:00:00,40.6,23.9,29.18,SSW,206,11.0,11.0,51,0.00,,,0.00,Weather View 32 v70,2013-04-13 19:00:00,
2013-04-13 15:10:00,39.2,22.6,29.18,SSW,213,8.0,12.0,51,0.00,,,0.00,Weather View 32 v70,2013-04-13 19:10:00,
2013-04-13 15:20:00,39.0,21.9,29.18,NW,324,4.0,12.0,50,0.00,,,0.00,Weather View 32 v70,2013-04-13 19:20:00,
2013-04-13 15:30:00,39.4,21.8,29.18,WSW,254,8.0,12.0,49,0.00,,,0.00,Weather View 32 v70,2013-04-13 19:30:00,
2013-04-13 15:40:00,39.7,25.3,29.18,WSW,256,3.0,12.0,56,0.00,,,0.00,Weather View 32 v70,2013-04-13 19:40:00,
2013-04-13 15:50:00,39.4,22.3,29.18,SSW,211,5.0,12.0,50,0.00,,,0.00,Weather View 32 v70,2013-04-13 19:50:00,
2013-04-13 16:00:00,39.4,21.8,29.18,SW,231,5.0,13.0,49,0.00,,,0.00,Weather View 32 v70,2013-04-13 20:00:00,
2013-04-13 16:10:00,39.7,22.1,29.18,NW,308,4.0,15.0,49,0.00,,,0.00,Weather View 32 v70,2013-04-13 20:10:00,
2013-04-13 16:20:00,39.0,21.0,29.18,SW,231,8.0,15.0,48,0.00,,,0.00,Weather View 32 v70,2013-04-13 20:20:00,
2013-04-13 16:30:00,38.5,20.0,29.18,WNW,285,8.0,15.0,47,0.00,,,0.00,Weather View 32 v70,2013-04-13 20:30:00,
2013-04-13 16:35:00,38.5,20.0,29.18,WNW,285,8.0,15.0,47,0.00,,,0.00,Weather View 32 v70,2013-04-13 20:35:00,
2013-04-13 16:50:00,40.1,18.3,29.18,West,262,6.0,15.0,41,0.00,,,0.00,Weather View 32 v70,2013-04-13 20:50:00,
2013-04-13 17:00:00,39.7,18.5,29.18,West,272,4.0,15.0,42,0.00,,,0.00,Weather View 32 v70,2013-04-13 21:00:00,
2013-04-13 17:10:00,40.6,18.2,29.21,SW,233,9.0,13.0,40,0.00,,,0.00,Weather View 32 v70,2013-04-13 21:10:00,
2013-04-13 17:20:00,40.1,16.5,29.21,South,186,5.0,13.0,38,0.00,,,0.00,Weather View 32 v70,2013-04-13 21:20:00,
2013-04-13 17:30:00,39.6,16.0,29.21,ENE,78,8.0,13.0,38,0.00,,,0.00,Weather View 32 v70,2013-04-13 21:30:00,
2013-04-13 17:36:00,39.6,16.0,29.21,ENE,78,8.0,13.0,38,0.00,,,0.00,Weather View 32 v70,2013-04-13 21:36:00,
2013-04-13 17:50:00,39.0,16.1,29.21,SSW,205,8.0,15.0,39,0.00,,,0.00,Weather View 32 v70,2013-04-13 21:50:00,
2013-04-13 18:00:00,38.7,15.8,29.21,SW,229,5.0,15.0,39,0.00,,,0.00,Weather View 32 v70,2013-04-13 22:00:00,
2013-04-13 18:10:00,38.3,15.5,29.21,SW,231,6.0,15.0,39,0.00,,,0.00,Weather View 32 v70,2013-04-13 22:10:00,
2013-04-13 18:20:00,38.1,15.9,29.21,SW,217,6.0,15.0,40,0.00,,,0.00,Weather View 32 v70,2013-04-13 22:20:00,
2013-04-13 18:30:00,38.3,15.5,29.21,West,264,4.0,15.0,39,0.00,,,0.00,Weather View 32 v70,2013-04-13 22:30:00,
2013-04-13 18:36:00,38.3,15.5,29.21,West,264,4.0,15.0,39,0.00,,,0.00,Weather View 32 v70,2013-04-13 22:36:00,
2013-04-13 18:50:00,38.3,15.5,29.23,West,278,6.0,13.0,39,0.00,,,0.00,Weather View 32 v70,2013-04-13 22:50:00,
2013-04-13 19:00:00,37.8,15.6,29.23,SSW,206,8.0,13.0,40,0.00,,,0.00,Weather View 32 v70,2013-04-13 23:00:00,
2013-04-13 19:10:00,37.8,15.6,29.23,West,264,9.0,12.0,40,0.00,,,0.00,Weather View 32 v70,2013-04-13 23:10:00,
2013-04-13 19:20:00,37.6,15.4,29.23,West,264,4.0,12.0,40,0.00,,,0.00,Weather View 32 v70,2013-04-13 23:20:00,
2013-04-13 19:30:00,37.4,15.3,29.23,SSW,193,6.0,12.0,40,0.00,,,0.00,Weather View 32 v70,2013-04-13 23:30:00,
2013-04-13 19:37:00,37.4,15.3,29.23,SSW,193,6.0,12.0,40,0.00,,,0.00,Weather View 32 v70,2013-04-13 23:37:00,
2013-04-13 19:50:00,36.9,15.3,29.23,NNW,331,9.0,12.0,41,0.00,,,0.00,Weather View 32 v70,2013-04-13 23:50:00,
2013-04-13 20:00:00,36.7,15.2,29.23,West,259,8.0,12.0,41,0.00,,,0.00,Weather View 32 v70,2013-04-14 00:00:00,
2013-04-13 20:10:00,36.7,16.3,29.23,SSW,201,4.0,12.0,43,0.00,,,0.00,Weather View 32 v70,2013-04-14 00:10:00,
2013-04-13 20:20:00,36.5,16.6,29.23,West,274,2.0,12.0,44,0.00,,,0.00,Weather View 32 v70,2013-04-14 00:20:00,
2013-04-13 20:30:00,36.5,17.2,29.23,SW,219,4.0,12.0,45,0.00,,,0.00,Weather View 32 v70,2013-04-14 00:30:00,
2013-04-13 20:38:00,36.5,17.2,29.23,SW,219,4.0,12.0,45,0.00,,,0.00,Weather View 32 v70,2013-04-14 00:38:00,
2013-04-13 20:50:00,36.3,17.5,29.26,SSW,208,4.0,11.0,46,0.00,,,0.00,Weather View 32 v70,2013-04-14 00:50:00,
2013-04-13 21:00:00,36.1,17.3,29.26,WSW,250,3.0,8.0,46,0.00,,,0.00,Weather View 32 v70,2013-04-14 01:00:00,
2013-04-13 21:10:00,36.1,17.3,29.26,SSW,192,3.0,8.0,46,0.00,,,0.00,Weather View 32 v70,2013-04-14 01:10:00,
2013-04-13 21:20:00,36.1,17.3,29.26,SW,233,4.0,8.0,46,0.00,,,0.00,Weather View 32 v70,2013-04-14 01:20:00,
2013-04-13 21:30:00,36.1,17.3,29.26,WSW,239,4.0,8.0,46,0.00,,,0.00,Weather View 32 v70,2013-04-14 01:30:00,
2013-04-13 21:39:00,36.1,17.3,29.26,WSW,239,4.0,8.0,46,0.00,,,0.00,Weather View 32 v70,2013-04-14 01:39:00,
2013-04-13 21:50:00,36.0,18.2,29.26,WSW,251,3.0,8.0,48,0.00,,,0.00,Weather View 32 v70,2013-04-14 01:50:00,
2013-04-13 22:00:00,36.0,18.6,29.26,SSW,211,4.0,8.0,49,0.00,,,0.00,Weather View 32 v70,2013-04-14 02:00:00,
2013-04-13 22:10:00,36.0,19.1,29.29,SW,235,3.0,8.0,50,0.00,,,0.00,Weather View 32 v70,2013-04-14 02:10:00,
2013-04-13 22:20:00,36.0,19.1,29.29,WSW,250,2.0,7.0,50,0.00,,,0.00,Weather View 32 v70,2013-04-14 02:20:00,
2013-04-13 22:30:00,36.0,19.6,29.29,SW,221,4.0,6.0,51,0.00,,,0.00,Weather View 32 v70,2013-04-14 02:30:00,
2013-04-13 22:40:00,36.0,19.6,29.26,SSW,204,4.0,6.0,51,0.00,,,0.00,Weather View 32 v70,2013-04-14 02:40:00,
2013-04-13 22:50:00,36.0,19.6,29.29,SW,236,3.0,8.0,51,0.00,,,0.00,Weather View 32 v70,2013-04-14 02:50:00,
2013-04-13 23:00:00,36.0,19.6,29.29,SW,214,4.0,8.0,51,0.00,,,0.00,Weather View 32 v70,2013-04-14 03:00:00,
2013-04-13 23:10:00,35.8,19.4,29.29,NW,306,3.0,8.0,51,0.00,,,0.00,Weather View 32 v70,2013-04-14 03:10:00,
2013-04-13 23:20:00,35.8,19.4,29.29,NW,306,3.0,8.0,51,0.00,,,0.00,Weather View 32 v70,2013-04-14 03:20:00,
2013-04-13 23:30:00,35.8,19.4,29.29,SW,218,3.0,8.0,51,0.00,,,0.00,Weather View 32 v70,2013-04-14 03:30:00,
2013-04-13 23:40:00,35.8,19.4,29.29,WSW,248,3.0,8.0,51,0.00,,,0.00,Weather View 32 v70,2013-04-14 03:40:00,
2013-04-13 23:50:00,35.8,19.9,29.29,West,270,4.0,8.0,52,0.00,,,0.00,Weather View 32 v70,2013-04-14 03:50:00,